Weather History for Subic Bay, Philippines

Change the Weather History Date:

Tuesday, November 5, 2013

  Actual Average Record
Temperature  
Mean Temperature 83 °F -  
Max Temperature 88 °F 86 °F 91 °F (2003)
Min Temperature 78 °F 74 °F 75 °F (2003)
Cooling Degree Days 18    
Growing Degree Days 33 (Base 50)    
Moisture  
Dew Point 75 °F    
Average Humidity 79    
Maximum Humidity 85    
Minimum Humidity 63    
Precipitation  
Precipitation 0.00 in - - ()
Sea Level Pressure  
Sea Level Pressure 29.83 in    
Wind  
Wind Speed 9 mph ()    
Max Wind Speed 18 mph    
Max Gust Speed -    
Visibility 6.7 miles    
Events Rain    
Averages and records for this station are not official NWS values.
T = Trace of Precipitation, MM = Missing Value Source: Averaged Metar Reports

Daily Weather History Graph

Daily Weather History Graph

Search for Another Location

Airport:

Trip Planner

Search our weather history database for the weather conditions in past years. The results will help you decide how hot, cold, wet, or windy it might be!

Date:

Astronomy

Nov. 05, 2013 Rise Set
Actual Time 5:55 AM PHT 5:28 PM PHT
Civil Twilight 5:33 AM PHT 5:51 PM PHT
Nautical Twilight 5:08 AM PHT 6:16 PM PHT
Astronomical Twilight 4:42 AM PHT 6:42 PM PHT
Moon 7:22 AM PHT (11/5) 7:08 PM PHT (11/5)
Length of Visible Light 12h 17m
Length of Day
11h 33m
Waxing Crescent, 4% of the Moon is Illuminated
Nov 5
Waxing Crescent
Nov 10
First Quarter
Nov 17
Full
Nov 26
Last Quarter
Dec 3
New

Hourly Weather History & Observations

Time (PHT) Temp. Heat Index Dew Point Humidity Pressure Visibility Wind Dir Wind Speed Gust Speed Precip Events Conditions
2:00 AM 79 °F - 74 °F 81% 29.81 in 7 mi ENE 8.9 mph - -   Haze
2:00 AM 78.8 °F - 73.4 °F 83% 29.80 in 6.2 mi ENE 9.2 mph - N/A   Partly Cloudy
3:00 AM 78.8 °F - 73.4 °F 83% 29.77 in 6.2 mi East 12.7 mph - N/A   Partly Cloudy
4:00 AM 78.8 °F - 73.4 °F 83% 29.77 in 6.2 mi ENE 18.4 mph - N/A   Partly Cloudy
5:00 AM 79 °F - 75 °F 85% 29.82 in 7 mi East 11.2 mph - -   Haze
5:00 AM 78.8 °F - 73.4 °F 83% 29.80 in 6.2 mi East 11.5 mph - N/A   Partly Cloudy
6:00 AM 80.6 °F 86.2 °F 75.2 °F 84% 29.83 in 6.2 mi ENE 8.1 mph - N/A   Scattered Clouds
7:00 AM 80.6 °F 85.4 °F 73.4 °F 79% 29.83 in 6.2 mi ENE 4.6 mph - N/A   Mostly Cloudy
8:00 AM 83 °F - 72 °F 63% 29.85 in 9 mi NE 8.9 mph - -   Haze
8:00 AM 82.4 °F 87.2 °F 71.6 °F 70% 29.83 in 6.2 mi NE 9.2 mph - N/A   Mostly Cloudy
9:00 AM 82.4 °F 89.5 °F 75.2 °F 79% 29.86 in 5.0 mi ENE 6.9 mph - N/A Rain Light Rain Showers
10:00 AM 84.2 °F 92.3 °F 75.2 °F 74% 29.86 in 6.2 mi East 15.0 mph - N/A   Mostly Cloudy
11:00 AM 86 °F - 77 °F 67% 29.87 in 11 mi East 2.2 mph - -   Haze
11:00 AM 84.2 °F 92.3 °F 75.2 °F 74% 29.86 in 6.2 mi Variable 2.3 mph - N/A   Mostly Cloudy
12:00 PM 86.0 °F 99.3 °F 78.8 °F 79% 29.83 in 6.2 mi East 10.4 mph - N/A   Overcast
1:00 PM 84.2 °F 94.1 °F 77.0 °F 79% 29.83 in 6.2 mi East 9.2 mph - N/A   Overcast
2:00 PM 83 °F - 76 °F 74% 29.81 in 7 mi East 15.7 mph - -   Partly Cloudy
2:00 PM 82.4 °F 89.5 °F 75.2 °F 79% 29.80 in 6.2 mi East 15.0 mph - N/A Rain Rain
3:00 PM 82.4 °F 88.2 °F 73.4 °F 74% 29.80 in 6.2 mi East 13.8 mph - N/A   Mostly Cloudy
4:00 PM 80.6 °F 86.2 °F 75.2 °F 84% 29.80 in 6.2 mi East 11.5 mph - N/A   Overcast
5:00 PM 81 °F - 76 °F 80% 29.82 in 11 mi ENE 17.9 mph - -   Haze
5:00 PM 80.6 °F 86.2 °F 75.2 °F 84% 29.80 in 6.2 mi ENE 9.2 mph - N/A   Overcast
6:00 PM 80.6 °F 86.2 °F 75.2 °F 84% 29.80 in 6.2 mi East 8.1 mph - N/A   Overcast
7:00 PM 80.6 °F 86.2 °F 75.2 °F 84% 29.80 in 6.2 mi East 10.4 mph - N/A   Overcast
8:00 PM 80 °F - 75 °F 79% 29.85 in 7 mi East 8.9 mph - -   Haze
8:00 PM 78.8 °F - 73.4 °F 83% 29.83 in 6.2 mi East 9.2 mph - N/A   Mostly Cloudy
9:00 PM 78.8 °F - 73.4 °F 83% 29.83 in 6.2 mi ESE 9.2 mph - N/A   Mostly Cloudy
10:00 PM 78.8 °F - 73.4 °F 83% 29.83 in 6.2 mi East 5.8 mph - N/A   Mostly Cloudy
11:00 PM 80 °F - 74 °F 79% 29.89 in 7 mi East 11.2 mph - -   Haze
11:00 PM 78.8 °F - 73.4 °F 83% 29.89 in 6.2 mi East 5.8 mph - N/A   Mostly Cloudy